Aerodrome Latest Weathers

# Airport/Station Observation Time (Local Time) Wind Visibility (km) Weather Temp. (°C) Dewdrop (°C) Air Pressure (hPa)
Direction (from) Speed (km/h)
1 Sultan Iskandar Muda - Banda Aceh 2017-08-22 21:30:00 WIB Tenang >=10 Cerah - berawan 28 22 1008
2 Cut Nyak Dien Nagan Raya - Meulaboh, NAD 2017-08-22 19:00:00 WIB Selatan 5.6 8.0 Cerah - berawan 29 27 1007
3 Malikussaleh - Lhokseumawe 2017-08-22 21:00:00 WIB Timur 5.6 6.0 Cerah - berawan 29 24 1008
4 Binaka - Gunung Sitoli 2017-08-22 21:00:00 WIB Tenang 5.0 Cerah - berawan 26 26 1008
5 Kualanamu International Airport - Deli Serdang 2017-08-22 21:30:00 WIB Barat 7.4 3.0 Halimun 27 27 1009
6 Dr. Ferdinand Lumban Tobing - Pinangsori (Sibolga) 2017-08-22 21:30:00 WIB Timur 5.6 >=10 Berawan 25 24 1009
7 Aek Godang - Padang Sidempuan 2017-08-22 21:00:00 WIB Barat 7.4 8.0 Berawan 26 22 1009
8 Minangkabau International Airport - Padang 2017-08-22 21:30:00 WIB Timur Laut 5.6 >=10 Berawan 25 23 1009
9 Sultan Syarif Kasim II - Pekanbaru 2017-08-22 21:30:00 WIB Tenggara 5.6 >=10 Berawan 26 23 1008
10 Depati Parbo - Kerinci 2017-08-22 19:00:00 WIB Tenang 6.0 Cerah - berawan 23 20 1011
11 Fatmawati Sukarno - Bengkulu 2017-08-22 21:30:00 WIB Tenggara 24.1 8.0 Cerah - berawan 27 23 1009
12 Sultan Thaha - Jambi 2017-08-22 21:30:00 WIB Tenang 5.0 Udara kabur 27 24 1009
13 Hang Nadim - Batam 2017-08-22 21:00:00 WIB Tenang >=10 Cerah - berawan 26 23 1011
14 Raja Haji Fisabilillah - Tanjung Pinang 2017-08-22 20:00:00 WIB Tenggara 7.4 7.0 Hujan ringan 26 24 1010
15 Sultan Mahmud Badaruddin II - Palembang 2017-08-22 21:00:00 WIB Tenggara 13.0 >=10 Cerah - berawan 27 23 1009
16 Radin Inten II - Lampung 2017-08-22 21:30:00 WIB Tenang >=10 Cerah - berawan 25 21 1011
17 Depati Amir - Pangkal Pinang 2017-08-22 21:30:00 WIB Selatan 7.4 7.0 Cerah - berawan 26 23 1010
18 Budiarto - Curug 2017-08-22 21:44:00 WIB Tenang 5.0 Berawan 25 24 1012
19 Soekarno Hatta - Jakarta 2017-08-22 21:30:00 WIB Variabel 7.4 7.0 Berawan 29 22 1011
20 Halim Perdanakusuma - Jakarta 2017-08-22 19:00:00 WIB Utara 11.1 6.0 Berawan 29 21 1009
21 H.A.S. Hanandjoeddin - Tanjung Pandan 2017-08-22 19:00:00 WIB Tenggara 7.4 6.0 Berawan 27 24 1010
22 Supadio - Pontianak 2017-08-22 21:30:00 WIB Timur Laut 9.3 6.0 Hujan ringan 25 24 1011
23 Rahadi Osman - Ketapang 2017-08-22 21:00:00 WIB Tenggara 7.4 6.0 Cerah - berawan 27 24 1011
24 Ahmad Yani - Semarang 2017-08-22 21:30:00 WIB Variabel 3.7 >=10 Cerah - berawan 27 20 1011
25 Adi Soemarmo - Surakarta 2017-08-22 21:00:00 WIB Barat Daya 14.8 7.0 Cerah - berawan 25 22 1011
26 Susilo - Sintang 2017-08-22 21:00:00 WIB Timur 3.7 6.0 Cerah - berawan 26 25 1011
27 Iskandar - Pangkalan Bun 2017-08-22 21:30:00 WIB Tenang 7.0 Berawan 24 23 1011
28 Nanga Pinoh 2017-08-22 20:00:00 WIB Timur 5.6 5.0 Udara kabur 25 23 1010
29 Juanda - Surabaya 2017-08-22 21:30:00 WIB Timur 13.0 8.0 Cerah - berawan 27 23 1011
30 Haji Asan - Sampit 2017-08-22 21:00:00 WIB Tenang 7.0 Hujan ringan 24 24 1011
31 Tjilik Riwut - Palangkaraya 2017-08-22 21:00:00 WIB Timur 7.4 5.0 Hujan 24 24 1013
32 Beringin - Muara Teweh 2017-08-22 21:30:00 WIB Tenang 7.0 Berawan 26 25 1012
33 Sanggu - Buntok 2017-08-22 21:00:00 WIB Barat Daya 9.3 3.0 Berawan 25 24 1013
34 Syamsudin Noor - Banjarmasin 2017-08-22 22:30:00 WITA Tenang 8.0 Cerah - berawan 25 23 1010
35 Ngurah Rai - Denpasar 2017-08-22 22:30:00 WITA Timur 13.0 >=10 Cerah - berawan 26 22 1013
36 Bandara Internasional Lombok - Praya 2017-08-22 22:30:00 WITA Selatan 14.8 7.0 Berawan 25 21 1014
37 Gusti Sjamsir Alam - Kota Baru 2017-08-22 22:30:00 WITA Tenang 5.0 Berawan 27 24 1011
38 Sepinggan - Balikpapan 2017-08-22 22:30:00 WITA Barat Daya 5.6 7.0 Hujan ringan 27 25 1010
39 Temindung - Samarinda 2017-08-22 20:00:00 WITA Barat Daya 9.3 >=10 Berawan 28 24 1011
40 Tanjung Harapan - Tanjung Selor 2017-08-22 22:25:00 WITA Tenang 6.0 Berawan 27 25 1010
41 Sultan Muhammad Kaharuddin - Sumbawa Besar 2017-08-22 22:00:00 WITA Tenggara 9.3 >=10 Cerah - berawan 25 20 1012
42 Kalimarau - Tanjung Redeb 2017-08-22 22:30:00 WITA Barat Laut 5.6 Cerah - berawan 26 22 1011
43 Juwata - Tarakan 2017-08-22 22:30:00 WITA Tenggara 11.1 8.0 Berawan 28 25 1010
44 Sultan Hasanuddin - Makassar 2017-08-22 22:30:00 WITA Selatan 5.6 8.0 Cerah - berawan 28 21 1011
45 Pongtiku - Tana Toraja 2017-08-22 20:00:00 WITA Tenang 5.0 Berawan 21 20 1011
46 Komodo - Labuan Bajo 2017-08-22 20:00:00 WITA Selatan 7.4 >=10 Cerah - berawan 26 21 1011
47 Mutiara - Palu 2017-08-22 22:30:00 WITA Selatan 7.4 5.0 Berawan 25 24 1013
48 Umbu Mehang Kunda - Waingapu 2017-08-22 21:00:00 WITA Tenang 5.0 Cerah - berawan 26 20 1013
49 Andi Jemma - Masamba 2017-08-22 22:00:00 WITA Utara 3.7 8.0 Berawan 25 23 1011
50 Frans Sales Lega - Ruteng 2017-08-22 22:30:00 WITA Barat Daya 3.7 Cerah 16 14 1011
51 Kasiguncu - Poso 2017-08-22 22:00:00 WITA Tenang 9.0 Berawan 26 25 1010
52 Tardamu - Sabu 2017-08-22 22:30:00 WITA Tenggara 11.1 6.0 Cerah - berawan 26 22 1014
53 Fransiskus Xaverius Seda - Maumere 2017-08-22 22:30:00 WITA Tenang 8.0 Cerah - berawan 22 18 1013
54 Beto Ambari - Bau Bau 2017-08-22 22:00:00 WITA Tenggara 5.6 5.0 Cerah - berawan 25 21 1014
55 Syukuran Aminuddin Amir - Luwuk 2017-08-22 22:30:00 WITA Barat Daya 9.3 >=10 Berawan 25 23 1011
56 Djalaluddin - Gorontalo 2017-08-22 22:00:00 WITA Utara 3.7 8.0 Berawan 26 24 1009
57 David Constantijn Saudale / Lekunik - Rote 2017-08-22 22:00:00 WITA Timur 13.0 >=10 Cerah - berawan 25 21 1018
58 El Tari - Kupang 2017-08-22 22:30:00 WITA Timur 11.1 8.0 Cerah - berawan 25 20 1014
59 Mali Kalabahi - Alor 2017-08-22 22:30:00 WITA Tenang 8.0 Berawan 27 22 1013
60 Sam Ratulangi - Manado 2017-08-22 22:30:00 WITA Tenggara 5.6 >=10 Cerah - berawan 26 23 1011
61 Emalamo - Sanana 2017-08-22 21:00:00 WIT Tenggara 13.0 9.0 Berawan 28 25 1010
62 Namlea 2017-08-22 23:00:00 WIT Tenggara 9.3 >=10 Cerah - berawan 25 22 1010
63 Sultan Babullah - Ternate 2017-08-22 23:30:00 WIT Tenang 9.0 Berawan 26 24 1011
64 Oesman Sadik - Labuha 2017-08-22 23:00:00 WIT Tenang 9.0 Berawan 25 24 1011
65 Pattimura - Ambon 2017-08-22 23:00:00 WIT Variabel 1.9 >=10 Berawan 24 23 1012
66 Amahai 2017-08-22 22:00:00 WIT Tenang >=10 Berawan 25 22 1012
67 Bandaneira - Banda 2017-08-22 23:00:00 WIT Tenggara 7.4 9.0 Cerah - berawan 26 22 1012
68 Seigun - Sorong Kota 2017-08-22 23:30:00 WIT Timur 3.7 5.0 Cerah - berawan 26 24 1011
69 Torea - Fak Fak 2017-08-22 22:00:00 WIT Timur Laut 5.6 8.0 Berawan 25 24 1012
70 Utarom - Kaimana 2017-08-22 22:00:00 WIT Tenggara 14.8 6.0 Berawan 26 24 1011
71 Nabire 2017-08-22 22:00:00 WIT Tenang 6.0 Hujan ringan 26 25 1011
72 Frans Kaisiepo - Biak 2017-08-22 23:30:00 WIT Tenang >=10 Berawan 30 25 1007
73 Sudjarwo Tjondronegoro - Serui 2017-08-22 21:00:00 WIT Timur Laut 3.7 5.0 Berawan 28 25 1009
74 Enarotali 2017-08-22 21:00:00 WIT Tenang 8.0 Hujan tiba-tiba di sekitarnya 18 16 1011
75 Moses Kilangin - Timika 2017-08-22 22:30:00 WIT Tenggara 3.7 6.0 Berawan 25 24 1014
76 Mararena / Orai - Sarmi 2017-08-22 21:00:00 WIT Timur 7.4 8.0 Cerah - berawan 29 24 1011
77 Mopah - Merauke 2017-08-22 22:00:00 WIT Tenggara 11.1 8.0 Berawan 24 20 1014

Satellite Images

Wave Height Forecast

Wind Forecast

Forest Fires